Location: Songkhla
(7.2000°N, 100.6000°E)
Time: 06:11:06
(UTC+07:00)

ISS - All Passes

Search period start: 06 May 2021 00:00
Search period end: 16 May 2021 00:00
Orbit: 418 x 421 km, 51.6° (Epoch: 05 May)

Date Brightness Start Highest point End Pass type
(mag) Time Alt. Az. Time Alt. Az. Time Alt. Az.
06 May - 09:43:41 10° NW 09:47:01 73° SW 09:50:22 10° SSE daylight
06 May - 21:24:22 10° SSE 21:26:32 16° SE 21:28:41 10° E night (unlit)
06 May - 23:00:57 10° W 23:03:09 16° NW 23:05:21 10° N night (unlit)
07 May - 08:56:25 10° NNW 08:59:39 44° NE 09:02:52 10° SE daylight
07 May - 22:12:38 10° WSW 22:15:44 35° NW 22:18:49 10° NNE night (unlit)
08 May - 08:09:42 10° N 08:12:14 20° NE 08:14:47 10° ESE daylight
08 May - 09:47:06 10° W 09:48:50 13° SW 09:50:34 10° SSW daylight
08 May - 21:25:00 10° SW 21:28:20 89° WNW 21:31:41 10° NE night (unlit)
09 May - 08:58:30 10° WNW 09:01:27 29° SW 09:04:26 10° S daylight
09 May - 20:37:51 10° SSW 20:40:58 36° SE 20:44:04 10° ENE night (unlit)
10 May - 08:10:45 10° NW 08:14:05 71° SW 08:17:27 10° SSE daylight
10 May - 19:51:24 10° SSE 19:53:36 16° SE 19:55:47 10° E night (unlit)
10 May - 21:28:02 10° W 21:30:12 16° NW 21:32:23 10° NNW night (unlit)
11 May - 07:23:28 10° NNW 07:26:42 44° NE 07:29:56 10° SE daylight
11 May - 20:39:41 10° WSW 20:42:47 34° NW 20:45:51 10° NNE night (unlit)
12 May - 06:36:43 10° N 06:39:17 20° NE 06:41:50 10° ESE daylight
12 May - 08:14:11 10° W 08:15:52 13° SW 08:17:34 10° SSW daylight
12 May - 19:52:02 10° SW 19:55:22 87° WNW 19:58:43 10° NE visible
13 May - 07:25:33 10° WNW 07:28:29 28° SW 07:31:26 10° S daylight
13 May - 19:04:53 10° SSW 19:07:59 36° SE 19:11:06 10° ENE visible
14 May - 06:37:46 10° NW 06:41:06 70° SW 06:44:27 10° SSE daylight
14 May - 18:18:24 10° SSE 18:20:36 17° SE 18:22:49 10° E daylight
14 May - 19:55:05 10° W 19:57:13 16° NW 19:59:21 10° NNW visible
15 May - 05:50:29 10° NNW 05:53:42 45° NE 05:56:56 10° SE daylight
15 May - 19:06:42 10° WSW 19:09:46 34° NW 19:12:51 10° NNE visible
